Torna al catalogo

CZ-4 DEB

AttivoSSO
NORAD 37622·DEBRIS·🇨🇳 China

Lanciato Sep 3, 1990 da Taiyuan Satellite Launch Center

Loading…

Prossimi Passaggi (prossime 24 ore)

TLE

AggiornatoSource: Space-Track

Epoca: Sep 13, 2026, 07:55 UTC

1 37622U 90081DJ  26256.33029115  .00001407  00000-0  38281-3 0  9990
2 37622  98.2986 291.1304 0033190  61.4292 359.9752 14.48660390344657

Traccia CZ-4 DEB in tempo reale con AllMySat

Download on the App Store